Погода в Виареджо

Италия     43°52′52″N   10°14′06″E
темп.,
°C
ветер,
м/с
пор.,
м/с
влажн.,
%
обл.,
%
осадки,
мм/ч
давл.,
гПа
погр.,
м
16 сентября, чт
чт1623:00+18сз1184100 0.0 101937
02:00+18всв228554 0.0 101942
05:00+17всв1290100 0.4 101849
08:00+18зюз1197100 5.3 101774
11:00+18ююз2399100 16.4 1017206
14:00+18в2396100 21.6 1017113
17:00+20ююз249460 2.6 1016310
20:00+18юв119515 4.6 101536
17 сентября, пт
пт1723:00+18в119440 2.1 101631
02:00+17в129480 3.3 101539
05:00+17юз129785 3.0 1014179
08:00+18юз1294100 5.3 1013133
11:00+19зюз2492100 4.1 1014355
14:00+20юз2388100 8.3 1013482
17:00+19юз2389100 4.4 1013334
20:00+18юз1194100 6.0 1013110
18 сентября, сб
сб1823:00+17зюз129698 2.0 1014120
02:00+17с119417 3.2 101495
05:00+16ссв119423 0.8 101322
08:00+17всв119418 1.4 101454
11:00+20ю227917 0.4 1014578
14:00+20юз238740 3.5 1014513
17:00+19юз128418 1.9 1013471
20:00+17ссз119164 1.9 101379
19 сентября, вс
вс1923:00+16св11920 0.0 101424
02:00+16св229330 0.0 101331
05:00+16всв119497 0.1 101332
08:00+16вюв1195100 1.3 101247
11:00+16ю3695100 13.4 1012419
14:00+17юз478856 21.9 1012575
17:00+17юз478299 2.1 10111148
20:00+16ююз358986 3.7 1010233
20 сентября, пн
пн2023:00+15всв229283 1.1 101186
02:00+15вюв129172 1.9 101260
05:00+15в129054 0.5 1013129
08:00+15всв229245 0.8 101361
11:00+16всв239385 1.1 1015137
14:00+18в228320 1.8 1015279
17:00+19з217427 1.1 1015712
20:00+16ссв11880 1.3 101647